Find Starlink 33677

NORAD ID: 63410 Int'l Des: 2025-065 Owner: SPXS Country: US Constellation: starlink operational
LEOCIRCULAR

リアルタイム位置

3D地球を読み込み中...

Starlink 33677について

説明を読み込み中...

次回通過

Passes for default location (London). Set your location on the main map for personalized predictions.

高度履歴

Loading altitude history...

軌道要素

1 63410U 25065M 26123.43750747 .00022871 00000-0 83796-3 0 9999
2 63410 42.9954 157.8155 0001370 263.6233 96.4463 15.27583018 61219
Epoch: May 3, 2026 • Age: 16 hours

現在のステータス

高度 482.4 km
速度 7.63 km/s
衛星直下点 16.15°N, 50.87°E
打ち上げ日 Mar 31, 2025
運用期間 1 years
タイプ internet

技術仕様

分類 Payload
質量 575.00 kg
乾燥質量 530.00 kg
総質量 575.00 kg
長さ 0.30 m
直径 4.10 m
スパン 29.00 m
形状 Box + pan
製造者 SPXS
バスタイプ Starlink V2MO
フェーズステータス In Orbit
所有者/国 SPXS/US

Most Searched